[[{"header":{"parameterUnit":"m.s-1","parameterCategory":1,"la1":30.2992,"la2":30.254,"lo1":-89.0895,"lo2":-89.0443,"dy":0.0025,"dx":0.0025,"nx":19,"ny":19,"refTime":"2026-05-06T21:00:00:Z","depth":0,"parameterNumber":2,"parameterNumberName":"U-component_of_WINDS"},"data":[0,0,0,1.0649,1.0652,1.0832,1.0833,1.106,1.1062,0,0,0,0,0,0,0,0,0,0,0,1.059,1.0591,1.0648,1.0653,1.0832,1.0833,1.1059,1.1062,0,0,0,0,0,0,0,0,0,0,0,1.0589,1.0591,1.0592,1.0653,1.0832,1.0833,1.1059,1.0925,0,0,0,0,0,0,0,0,0,0,1.0751,1.0691,1.059,1.0592,1.0654,1.0832,1.0833,1.0919,1.0934,1.0976,0,1.1008,0,1.1038,1.1076,1.1077,0,0,0,1.0658,1.0678,1.0731,1.0592,1.0656,1.0832,1.0753,1.0927,1.0944,1.0995,1.1011,1.102,1.1042,1.1078,1.1079,1.1295,1.1296,0,0,1.0648,1.062,1.072,1.0742,1.071,1.0747,1.0758,1.0937,1.0955,1.1012,1.1026,1.1046,1.1079,1.1081,1.1295,1.1296,0,0,0,1.0616,1.0613,1.0662,1.0732,1.0765,1.0752,1.0765,1.0947,1.0965,1.1028,1.1048,1.108,1.1083,1.1294,1.1295,1.1304,0,0,0,1.061,1.0594,1.0657,1.0642,1.0761,1.0857,1.077,1.0953,1.0974,1.1047,1.108,1.1085,1.1293,1.1295,1.1302,1.1314,0,0,0,1.058,1.059,1.0614,1.064,1.0716,1.0855,1.0884,1.0958,1.0986,1.1077,1.1086,1.1293,1.1294,1.1301,1.1311,1.1363,0,0,0,1.0541,1.0622,1.0614,1.0713,1.0714,1.0858,1.0883,1.0993,1.1072,1.1082,1.1293,1.1295,1.13,1.131,1.1361,1.1401,1.1415,0,0,1.0627,1.0631,1.0691,1.069,1.0828,1.0833,1.0975,1.1075,1.1112,1.1233,1.1239,1.1303,1.1311,1.1363,1.1503,1.1513,0,0,0,1.071,1.0753,1.0795,1.0868,1.0945,1.1013,1.1094,1.1132,1.1236,1.1167,1.1337,1.1342,1.1374,1.1394,1.1404,1.1433,1.1303,1.1303,1.1303,1.0793,1.0832,1.0935,1.0996,1.1067,1.115,1.1212,1.1277,1.1298,1.1338,1.1374,1.1454,1.1477,1.1484,1.1514,1.1398,1.1398,1.1398,1.1398,1.0924,1.0991,1.1016,1.1124,1.1167,1.126,1.1344,1.1355,1.145,1.143,1.1459,1.1434,1.1494,1.1523,1.14,1.1399,1.1399,1.1399,1.1399,1.0983,1.1022,1.1065,1.1174,1.1254,1.1315,1.1404,1.144,1.1475,1.1505,1.1548,1.1548,1.1553,1.1522,1.1523,1.1523,1.1523,1.1523,1.1524,1.1028,1.1075,1.1144,1.1232,1.1284,1.1357,1.1441,1.1494,1.1563,1.1582,1.1583,1.1601,1.1492,1.1464,1.1528,1.1527,1.1527,1.1526,1.1526,1.1146,1.1125,1.1231,1.1283,1.139,1.1468,1.1513,1.1618,1.1667,1.171,1.1722,1.1635,1.1643,1.1636,1.1613,1.1712,1.1712,1.1712,1.1712,1.1196,1.1203,1.132,1.14,1.1483,1.1534,1.1656,1.1723,1.179,1.1824,1.1815,1.1787,1.1779,1.1792,1.1781,1.1761,1.1895,1.1895,1.1895,1.1272,1.1288,1.1383,1.1445,1.1532,1.1607,1.1723,1.1816,1.1888,1.1903,1.1851,1.1843,1.18,1.1783,1.1797,1.178,1.1743,0,0]},{"header":{"parameterUnit":"m.s-1","parameterCategory":1,"la1":30.2992,"la2":30.254,"lo1":-89.0895,"lo2":-89.0443,"dy":0.0025,"dx":0.0025,"nx":19,"ny":19,"refTime":"2026-05-06T21:00:00:Z","depth":0,"parameterNumber":3,"parameterNumberName":"V-component_of_WINDS"},"data":[0,0,0,2.4326,2.4329,2.4504,2.4505,2.4736,2.4738,0,0,0,0,0,0,0,0,0,0,0,2.4281,2.4283,2.4325,2.433,2.4504,2.4505,2.4736,2.4738,0,0,0,0,0,0,0,0,0,0,0,2.428,2.4282,2.4285,2.433,2.4504,2.4505,2.4735,2.46,0,0,0,0,0,0,0,0,0,0,2.4429,2.4396,2.4282,2.4285,2.4332,2.4504,2.4505,2.4594,2.4609,2.4661,0,2.4711,0,2.4728,2.4754,2.4755,0,0,0,2.4324,2.4383,2.4424,2.4285,2.4333,2.4503,2.4424,2.4602,2.4619,2.4681,2.4715,2.4723,2.4732,2.4756,2.4757,2.5077,2.5079,0,0,2.4315,2.4316,2.4412,2.4435,2.4411,2.4418,2.4429,2.4612,2.4648,2.4715,2.4728,2.4736,2.4758,2.4759,2.5076,2.5078,0,0,0,2.4291,2.431,2.4345,2.4426,2.4457,2.4424,2.4436,2.464,2.4651,2.4731,2.4739,2.4759,2.4762,2.5074,2.5076,2.5161,0,0,0,2.4285,2.4296,2.4342,2.4344,2.4454,2.4551,2.446,2.4639,2.4659,2.4738,2.4759,2.4764,2.5072,2.5075,2.5155,2.5201,0,0,0,2.4267,2.4294,2.4321,2.4344,2.4419,2.4548,2.457,2.4643,2.4665,2.4755,2.4765,2.5071,2.5075,2.5149,2.5191,2.5282,0,0,0,2.4249,2.4398,2.4323,2.4492,2.4418,2.46,2.4569,2.4705,2.4793,2.476,2.5072,2.5076,2.5147,2.5186,2.5275,2.5356,2.539,0,0,2.4437,2.4421,2.452,2.4457,2.4653,2.4574,2.4781,2.4862,2.487,2.5007,2.5015,2.5157,2.5191,2.528,2.5588,2.5616,0,0,0,2.458,2.465,2.4702,2.4785,2.4849,2.4905,2.4953,2.4981,2.5097,2.4941,2.5216,2.5236,2.5288,2.5326,2.5349,2.5392,2.5095,2.5094,2.5094,2.4848,2.4847,2.5009,2.5029,2.511,2.5154,2.5218,2.5264,2.5244,2.5308,2.5348,2.5535,2.558,2.5597,2.5641,2.5393,2.5393,2.5394,2.5394,2.512,2.5218,2.5182,2.5326,2.5323,2.5444,2.5491,2.5471,2.558,2.5506,2.5552,2.5468,2.5627,2.5665,2.54,2.5399,2.5398,2.5398,2.5397,2.5293,2.5339,2.5371,2.5486,2.5575,2.559,2.5695,2.569,2.5687,2.5733,2.5771,2.5769,2.5764,2.5752,2.5752,2.5753,2.5754,2.5754,2.5754,2.5458,2.5491,2.558,2.5656,2.5705,2.577,2.5814,2.5862,2.5913,2.5901,2.5901,2.587,2.5644,2.5585,2.5764,2.5763,2.5761,2.576,2.576,2.5729,2.5665,2.5804,2.5853,2.5938,2.6024,2.6016,2.6113,2.6152,2.6203,2.6162,2.5996,2.5979,2.596,2.5911,2.6164,2.6164,2.6164,2.6164,2.5871,2.5862,2.5998,2.6076,2.6152,2.6158,2.6308,2.6342,2.6367,2.6389,2.6353,2.6288,2.6269,2.6263,2.6237,2.6191,2.651,2.651,2.6511,2.6035,2.6031,2.6162,2.6185,2.625,2.6305,2.6446,2.6534,2.6549,2.6524,2.6406,2.6391,2.6287,2.6254,2.6225,2.6186,2.6101,0,0]}]]